Regional Weather Roundup
Issued by NWS Sioux Falls, SD

Home | Current Version | Previous Version | Graphics & Text | Print | Product List | Glossary On
Versions: 1 2 3 4 5 6 7 8 9 10 11 12 13 14 15 16 17 18 19 20 21 22 23 24 25 26 27 28 29 30 31 32 33 34 35 36 37 38 39 40 41 42 43 44 45 46 47 48 49 50
000
ASUS43 KFSD 221302
RWRFSD

WEATHER ROUNDUP FOR SE SOUTH DAKOTA/SW MINNESOTA/NW IOWA
NATIONAL WEATHER SERVICE SIOUX FALLS SD
700 AM CST WED FEB 22 2017

NOTE: "FAIR" INDICATES FEW OR NO CLOUDS BELOW 12,000 FEET WITH NO
SIGNIFICANT WEATHER AND OR OBSTRUCTIONS TO VISIBILITY.


SDZ038>040-050-052>070-221400-
SOUTHEAST SOUTH DAKOTA

CITY           SKY/WX    TMP DP  RH WIND       PRES   REMARKS
BROOKINGS      FAIR      40  36  86 NW10      29.63R
CHAMBERLAIN    PTCLDY    40  37  90 NW25G32   29.68R
HURON          CLOUDY    44  41  89 SE3       29.59F
MADISON        CLOUDY    41  41 100 NW15      29.63R
MITCHELL       MOCLDY    48  39  71 W8        29.62F
SIOUX FALLS    MOCLDY    37  34  89 W6        29.61S
WINNER         FAIR      45  36  70 SW12      29.68R
YANKTON        FAIR      41  32  70 NW15      29.63R
$$

MNZ071-072-080-081-089-090-097-098-221400-
SOUTHWEST MINNESOTA

CITY           SKY/WX    TMP DP  RH WIND       PRES   REMARKS
FAIRMONT       FAIR      35  32  88 S9        29.59F WCI  28
JACKSON        FAIR      37  32  81 SW6       29.59S
LUVERNE        FAIR      32  30  93 SW5       29.62R WCI  27
MARSHALL       FAIR      37  36  96 NW8       29.61R
MONTEVIDEO     MOCLDY    39  39 100 CALM      29.61R
PIPESTONE      FAIR      41  30  65 W7        29.60R
REDWOOD FALLS  FAIR      39  36  89 N5        29.58F
TRACY          FAIR      41  37  83 W9        29.59S
WINDOM         FAIR      37  34  87 SW6       29.57F
WORTHINGTON    FAIR      39  33  79 SW13      29.60S
$$

IAZ001>003-012>014-020>022-031-032-NEZ013-014-SDZ071-221400-
NORTHWEST IOWA

CITY           SKY/WX    TMP DP  RH WIND       PRES   REMARKS
CHEROKEE       FAIR      40  33  77 SW5       29.63R
DENISON        FAIR      43  34  70 CALM      29.63F
ESTHERVILLE    FAIR      35  33  92 SW5       29.60R
LE MARS        FAIR      36  32  87 CALM      29.64S
ORANGE CITY    FAIR      36  34  93 SW5       29.64R
SHELDON          N/A     37  37 100 SW8       29.63R
SIOUX CITY     FAIR      38  32  79 E5        29.63F
SPENCER        FAIR      33  31  92 W6        29.62R WCI  28
STORM LAKE     FAIR      45  34  65 SW14      29.63F
$$

ABBREVIATIONS USED IN REMARKS
   TC - TEMPERATURE IN CELSIUS
  WCI - WIND CHILL INDEX
   HX - HEAT INDEX
  VSB - VISIBILITY





USA.gov is the U.S. government's official web portal to all federal, state and local government web resources and services.